User: anonymous
Location: Clinton NY
(43.0598°N, 75.3602°W)
Time: 06:21:03
(UTC-04:00)
Language:

Cosmos-2242 - Orbit

View from above orbital plane
View from above orbital plane
View from above satellite
View from above satellite

Ground track
Ground track

The orbit data is extracted from the following two-line orbital elements,

1 22626U 93024A   14265.45833081  .00001012  00000-0  11253-3 0  2101
2 22626 082.5203 262.6034 0019863 188.3943 171.6944 14.86047559157718
Epoch (UTC): 22 September 2014 10:59:59
Eccentricity: 0.0019863
inclination: 82.5203°
perigee height: 596 km
apogee height: 624 km
right ascension of ascending node: 262.6034°
argument of perigee: 188.3943°
revolutions per day: 14.86047559
mean anomaly at epoch: 171.6944°
orbit number at epoch: 15771

The dashed part of the orbit path shows where the satellite is in the earth's shadow,  

DLR